| time (UTC) | temp C | wind direction | speed KPH | gust KPH | rain 1hr cm | rain 24hr cm | rain mn cm | humidity % | barometer mb |
| 20260505173231 | 22 | 160 | 29.0 | 48.3 | 0.00 | 0.00 | 0.00 | 35 | 1005.0 |
| 20260505172138 | 22 | 170 | 29.0 | 0.0 | 0.00 | 0.00 | 0.00 | 33 | |
| 20260505170226 | 22 | 160 | 32.2 | 49.9 | 0.00 | 0.00 | 0.00 | 33 | 1005.0 |
| 20260505164703 | 23 | 160 | 32.2 | 49.9 | 0.00 | 0.00 | 0.00 | 31 | 1005.0 |
| 20260505163238 | 23 | 160 | 33.8 | 0.0 | 0.00 | 0.00 | 0.00 | 31 | 1005.0 |
| 20260505162254 | 25 | 170 | 25.7 | 0.0 | 0.00 | 0.00 | 0.00 | 29 | |
| 20260505160227 | 25 | 150 | 27.4 | 0.0 | 0.00 | 0.00 | 0.00 | 29 | 1005.0 |
| 20260505153231 | 26 | 170 | 24.1 | 0.0 | 0.00 | 0.00 | 0.00 | 22 | 1005.0 |
| 20260505152121 | 26 | 170 | 29.0 | 0.0 | 0.00 | 0.00 | 0.00 | 22 | |
| 20260505150233 | 26 | 160 | 25.7 | 0.0 | 0.00 | 0.00 | 0.00 | 22 | 1005.0 |
| 20260505140233 | 25 | 160 | 25.7 | 0.0 | 0.00 | 0.00 | 0.00 | 22 | 1006.0 |
| 20260505130227 | 25 | 150 | 20.9 | 0.0 | 0.00 | 0.00 | 0.00 | 27 | 1007.0 |
| 20260505123224 | 25 | 160 | 20.9 | 0.0 | 0.00 | 0.00 | 0.00 | 27 | 1007.0 |
| 20260505122108 | 23 | 150 | 22.5 | 0.0 | 0.00 | 0.00 | 0.00 | 31 | |
| 20260505120304 | 23 | 150 | 20.9 | 0.0 | 0.00 | 0.00 | 0.00 | 31 | 1008.0 |
| 20260505113223 | 23 | 160 | 20.9 | 0.0 | 0.00 | 0.00 | 0.00 | 31 | 1008.0 |
| 20260505112109 | 22 | 170 | 22.5 | 0.0 | 0.00 | 0.00 | 0.00 | 31 | |
| 20260505110237 | 23 | 160 | 19.3 | 0.0 | 0.00 | 0.00 | 0.00 | 31 | 1008.0 |
| 20260505102109 | 22 | 150 | 19.3 | 0.0 | 0.00 | 0.00 | 0.00 | 35 | |
| 20260505100227 | 22 | 160 | 19.3 | 0.0 | 0.00 | 0.00 | 0.00 | 35 | 1008.0 |
| 20260505093224 | 21 | 140 | 20.9 | 0.0 | 0.00 | 0.00 | 0.00 | 37 | 1009.0 |
| 20260505092106 | 20 | 150 | 19.3 | 0.0 | 0.00 | 0.00 | 0.00 | 40 | |
| 20260505090226 | 20 | 130 | 16.1 | 0.0 | 0.00 | 0.00 | 0.00 | 40 | 1009.0 |
| 20260505083224 | 18 | 140 | 19.3 | 0.0 | 0.00 | 0.00 | 0.00 | 39 | 1009.0 |
| 20260505082108 | 17 | 130 | 19.3 | 0.0 | 0.00 | 0.00 | 0.00 | 42 | |
| 20260505080231 | 17 | 130 | 12.9 | 0.0 | 0.00 | 0.00 | 0.00 | 42 | 1009.0 |
| 20260505073224 | 17 | 150 | 12.9 | 0.0 | 0.00 | 0.00 | 0.00 | 45 | 1009.0 |
| 20260505072107 | 17 | 160 | 19.3 | 0.0 | 0.00 | 0.00 | 0.00 | 42 | |
| 20260505070232 | 17 | 140 | 19.3 | 0.0 | 0.00 | 0.00 | 0.00 | 42 | 1010.0 |
| 20260505063223 | 17 | 120 | 14.5 | 0.0 | 0.00 | 0.00 | 0.00 | 42 | 1010.0 |
| 20260505062108 | 16 | 90 | 11.3 | 0.0 | 0.00 | 0.00 | 0.00 | 44 | |
| 20260505060225 | 16 | 90 | 14.5 | 0.0 | 0.00 | 0.00 | 0.00 | 44 | 1009.0 |
| 20260505053212 | 13 | 80 | 12.9 | 0.0 | 0.00 | 0.00 | 0.00 | 47 | 1009.0 |
| 20260505052106 | 12 | 70 | 14.5 | 0.0 | 0.00 | 0.00 | 0.00 | 50 | |
| 20260505050231 | 12 | 80 | 11.3 | 0.0 | 0.00 | 0.00 | 0.00 | 50 | 1009.0 |
| 20260505040225 | 12 | 90 | 8.0 | 0.0 | 0.00 | 0.00 | 0.00 | 50 | 1009.0 |
| 20260505033217 | 12 | 80 | 11.3 | 0.0 | 0.00 | 0.00 | 0.00 | 47 | 1009.0 |
| 20260505032106 | 12 | 100 | 14.5 | 0.0 | 0.00 | 0.00 | 0.00 | 43 | |
| 20260505030226 | 12 | 90 | 4.8 | 0.0 | 0.00 | 0.00 | 0.00 | 43 | 1010.0 |
| 20260505023217 | 13 | 90 | 9.7 | 0.0 | 0.00 | 0.00 | 0.00 | 41 | 1010.0 |
| 20260505022106 | 12 | 100 | 11.3 | 0.0 | 0.00 | 0.00 | 0.00 | 43 | |
| 20260505020224 | 13 | 80 | 12.9 | 0.0 | 0.00 | 0.00 | 0.00 | 41 | 1010.0 |
| 20260505013217 | 13 | 100 | 8.0 | 0.0 | 0.00 | 0.00 | 0.00 | 44 | 1010.0 |
| 20260505012109 | 15 | 80 | 8.0 | 0.0 | 0.00 | 0.00 | 0.00 | 41 | |
| 20260505010224 | 15 | 70 | 8.0 | 0.0 | 0.00 | 0.00 | 0.00 | 41 | 1010.0 |
| 20260505003217 | 17 | 90 | 9.7 | 0.0 | 0.00 | 0.00 | 0.00 | 36 | 1011.0 |
| 20260505002107 | 16 | 40 | 11.3 | 0.0 | 0.00 | 0.00 | 0.00 | 36 | |
| 20260505000226 | 16 | 80 | 9.7 | 0.0 | 0.00 | 0.00 | 0.00 | 38 | 1011.0 |
| 20260504233217 | 17 | 90 | 14.5 | 0.0 | 0.00 | 0.00 | 0.00 | 36 | 1011.0 |
| 20260504232138 | 16 | 90 | 14.5 | 0.0 | 0.00 | 0.00 | 0.00 | 38 | |
| 20260504230233 | 16 | 90 | 19.3 | 0.0 | 0.00 | 0.00 | 0.00 | 38 | 1011.0 |
| 20260504223223 | 16 | 90 | 19.3 | 0.0 | 0.00 | 0.00 | 0.00 | 38 | 1011.0 |
| 20260504222110 | 17 | 90 | 14.5 | 0.0 | 0.00 | 0.00 | 0.00 | 36 | |
| 20260504220233 | 17 | 90 | 19.3 | 0.0 | 0.00 | 0.00 | 0.00 | 36 | 1011.0 |
| 20260504213217 | 17 | 80 | 14.5 | 0.0 | 0.00 | 0.00 | 0.00 | 36 | 1012.0 |
| 20260504212106 | 17 | 70 | 14.5 | 0.0 | 0.00 | 0.00 | 0.00 | 34 | |
| 20260504210228 | 17 | 80 | 14.5 | 0.0 | 0.00 | 0.00 | 0.00 | 36 | 1012.0 |
| 20260504203216 | 17 | 80 | 14.5 | 0.0 | 0.00 | 0.00 | 0.00 | 36 | 1012.0 |
| 20260504202106 | 17 | 70 | 11.3 | 0.0 | 0.00 | 0.00 | 0.00 | 36 | |
| 20260504200227 | 17 | 80 | 12.9 | 0.0 | 0.00 | 0.00 | 0.00 | 36 | 1012.0 |
| 20260504193217 | 18 | 70 | 11.3 | 0.0 | 0.00 | 0.00 | 0.00 | 34 | 1012.0 |
| 20260504192108 | 18 | 100 | 11.3 | 0.0 | 0.00 | 0.00 | 0.00 | 34 | |
| 20260504190234 | 18 | 90 | 12.9 | 0.0 | 0.00 | 0.00 | 0.00 | 34 | 1012.0 |
| 20260504183224 | 20 | 90 | 12.9 | 0.0 | 0.00 | 0.00 | 0.00 | 34 | 1012.0 |
| 20260504182109 | 20 | 110 | 11.3 | 0.0 | 0.00 | 0.00 | 0.00 | 34 | |
| 20260504180226 | 20 | 100 | 12.9 | 0.0 | 0.00 | 0.00 | 0.00 | 34 | 1012.0 |